Regional Weather Roundup
Issued by NWS Sioux Falls, SD

Home | Current Version | Previous Version | Text Only | Print | Product List | Glossary On
Versions: 1 2 3 4 5 6 7 8 9 10 11 12 13 14 15 16 17 18 19 20 21 22 23 24 25 26 27 28 29 30 31 32 33 34 35 36 37 38 39 40 41 42 43 44 45 46 47 48 49 50
000
ASUS43 KFSD 020610
RWRFSD

WEATHER ROUNDUP FOR SE SOUTH DAKOTA/SW MINNESOTA/NW IOWA
NATIONAL WEATHER SERVICE SIOUX FALLS SD
100 AM CDT WED SEP 02 2015

NOTE: "FAIR" INDICATES FEW OR NO CLOUDS BELOW 12,000 FEET WITH NO
SIGNIFICANT WEATHER AND OR OBSTRUCTIONS TO VISIBILITY.


SDZ038>040-050-052>070-020700-
SOUTHEAST SOUTH DAKOTA

CITY           SKY/WX    TMP DP  RH WIND       PRES   REMARKS
BROOKINGS      FAIR      66  63  88 E9        29.90R
CHAMBERLAIN    CLEAR     68  67  98 E6        29.81S
6HR MIN TEMP:  68; 6HR MAX TEMP:  79;

HURON          CLEAR     69  68  96 SE7       29.81F FOG
6HR MIN TEMP:  68; 6HR MAX TEMP:  80;

MADISON        FAIR      66  66 100 E9        29.87S FOG
MITCHELL       CLEAR     68  67  96 E3        29.82S FOG
6HR MIN TEMP:  68; 6HR MAX TEMP:  79;

SIOUX FALLS    FAIR      74  70  87 S8        29.85F
6HR MIN TEMP:  72; 6HR MAX TEMP:  77;

WINNER           N/A     77  62  59 S14       29.81S
YANKTON        FAIR      73  66  78 S5        29.83S
$$

MNZ071-072-080-081-089-090-097-098-020700-
SOUTHWEST MINNESOTA

CITY           SKY/WX    TMP DP  RH WIND       PRES   REMARKS
FAIRMONT       MOCLDY    72  63  73 S12G20    29.92F THUNDER
JACKSON        MOCLDY    75  70  83 S9        29.91F
LUVERNE        FAIR      73  70  88 S6        29.88S
MARSHALL       CLOUDY    68  57  68 E16G29    29.93R THUNDER
6HR MIN TEMP:  66; 6HR MAX TEMP:  75; 6HR PCP:  1.05;

MONTEVIDEO     FAIR      68  66  94 SW14G21   29.91F
PIPESTONE      FAIR      66  64  94 E3        29.90S
REDWOOD FALLS  TSTM      68  65  90 S28G38    29.91R FOG
TRACY          CLOUDY    68  65  89 E10       29.92S
WINDOM         MOCLDY    72  68  88 N7        29.91F
WORTHINGTON    FAIR      73  66  78 S12       29.89F
$$

IAZ001>003-012>014-020>022-031-032-NEZ013-014-SDZ071-020700-
NORTHWEST IOWA

CITY           SKY/WX    TMP DP  RH WIND       PRES   REMARKS
CHEROKEE       FAIR      75  69  80 S13       29.90F
DENISON        MOCLDY    75  68  78 S9G18     29.91F
ESTHERVILLE    CLOUDY    73  69  87 SE10      29.92F
LE MARS        FAIR      73  68  83 S10       29.88F
ORANGE CITY    FAIR      73  70  88 S9        29.89F
SHELDON        FAIR      73  70  88 S10       29.88F
SIOUX CITY     FAIR      74  67  78 S9        29.88S
6HR MIN TEMP:  74; 6HR MAX TEMP:  83;

SPENCER        FAIR      76  66  71 S13       29.90F HAZE
6HR MIN TEMP:  75; 6HR MAX TEMP:  80;

STORM LAKE     CLOUDY    73  68  83 S14       29.93F
$$

ABBREVIATIONS USED IN REMARKS
   TC - TEMPERATURE IN CELSIUS
  WCI - WIND CHILL INDEX
   HX - HEAT INDEX
  VSB - VISIBILITY



USA.gov is the U.S. government's official web portal to all federal, state and local government web resources and services.